Flag for Vietnam Weather past 2 weeks in Ho Chi Minh, Vietnam

Now
84 °F

Scattered clouds.


Feels Like: 91 °F
Forecast: 78 / 91 °F
Wind: 3 mph from North

Location: Ho Chi Minh

Current Time: Oct 21, 2014 at 10:47:40 AM

Latest Report: Oct 21, 2014 at 10:00 AM


Visibility: N/A

Pressure: 29.95 "Hg

Humidity: 70%

Dew point: 73 °F

Location of Ho Chi MinhLocation

Historic Weather in Ho Chi Minh — Graph

°F

Ho Chi Minh temperature yesterday

Maximum temperature yesterday: 93 °F (at 12:30 PM)
Minimum temperature yesterday: 75 °F (at 4:00 AM)
Average temperature yesterday: 81 °F

Past Weeks' High & Low Weather Summary

 TemperatureHumidityPressure
High93 °F (Oct 14, 3:00 PM)94% (Oct 6, 6:30 PM)29.95 "Hg (Oct 6, 6:30 PM)
Low75 °F (Oct 7, 1:30 AM)46% (Oct 12, 1:00 PM)29.68 "Hg (Oct 10, 2:30 PM)
Average82 °F77%29.82 "Hg
* Reported Oct 6 9:00 AM — Oct 21 9:30 AM, Ho Chi Minh, Weather by CustomWeather, © 2014

Note: Actual official high and low records may vary slightly from our data, if they occured in-between our weather recording intervals... More about our weather records

Advertising

Ho Chi Minh weather history for previous 24 hours

 ConditionsComfort  
Time TempWeatherWind HumidityBarometerVisibility
9:30 AM
Oct 21
84 °FScattered clouds.2 mph70%29.95 "HgN/A
9:00 AM84 °FSunny.2 mph70%29.95 "Hg10 mi
8:30 AM81 °FSunny.3 mph79%29.95 "Hg10 mi
8:00 AM79 °FSunny.2 mph84%29.95 "Hg10 mi
7:30 AM79 °FSunny.2 mph84%29.95 "Hg10 mi
7:00 AM77 °FScattered clouds.1 mph89%29.92 "Hg5 mi
6:30 AM77 °FScattered clouds.2 mph89%29.92 "Hg5 mi
6:00 AM75 °FScattered clouds.2 mph94%29.92 "Hg4 mi
5:30 AM75 °FPartly cloudy.2 mph94%29.89 "Hg4 mi
5:00 AM75 °FPartly cloudy.1 mph94%29.89 "Hg4 mi
4:30 AM75 °FPartly cloudy.2 mph89%29.86 "Hg4 mi
4:00 AM75 °FPartly cloudy.2 mph89%29.86 "Hg4 mi
3:30 AM75 °FPartly cloudy.5 mph89%29.86 "Hg5 mi
3:00 AM77 °FPartly cloudy.5 mph89%29.86 "Hg5 mi
2:30 AM77 °FPartly cloudy.2 mph89%29.86 "Hg5 mi
2:00 AM77 °FPartly cloudy.1 mph89%29.86 "Hg5 mi
1:30 AM77 °FPartly cloudy.2 mph89%29.86 "Hg5 mi
1:00 AM77 °FPartly cloudy.2 mph89%29.86 "Hg5 mi
12:30 AM77 °FPartly cloudy.2 mph89%29.89 "Hg5 mi
12:00 AM77 °FPartly cloudy.No wind89%29.89 "Hg5 mi
11:30 PM
Oct 20
77 °FPartly cloudy.2 mph89%29.89 "Hg5 mi
11:00 PM77 °FPartly cloudy.2 mph89%29.89 "Hg5 mi
10:30 PM77 °FPassing clouds.2 mph94%29.89 "Hg5 mi
10:00 PM77 °FPassing clouds.5 mph89%29.89 "Hg5 mi
9:30 PM77 °FPartly cloudy.2 mph89%29.89 "Hg5 mi
9:00 PM75 °FThunderstorms. Partly cloudy.5 mph94%29.89 "Hg5 mi
8:30 PM75 °FThunderstorms. Partly cloudy.3 mph89%29.89 "Hg3 mi
8:00 PM77 °FSprinkles. Partly cloudy.9 mph83%29.86 "HgN/A
7:30 PM75 °FThunderstorms. Partly cloudy.9 mph89%29.86 "Hg5 mi
7:00 PM84 °FThunderstorms. Passing clouds.7 mph74%29.83 "HgN/A
6:30 PM84 °FPassing clouds.10 mph79%29.80 "HgN/A
6:00 PM86 °FPassing clouds.10 mph70%29.80 "HgN/A
5:30 PM88 °FScattered clouds.5 mph62%29.77 "Hg5 mi
5:00 PM88 °FScattered clouds.6 mph62%29.77 "Hg5 mi
4:30 PM88 °FScattered clouds.6 mph66%29.77 "Hg5 mi
4:00 PM88 °FScattered clouds.8 mph66%29.74 "Hg5 mi
3:30 PM88 °FScattered clouds.6 mph62%29.74 "Hg5 mi
3:00 PM88 °FScattered clouds.6 mph70%29.74 "Hg5 mi
2:30 PM86 °FSprinkles. Scattered clouds.9 mph75%29.77 "Hg5 mi
2:00 PM86 °FSprinkles. Scattered clouds.3 mph66%29.77 "Hg4 mi
1:30 PM90 °FPartly sunny.2 mph59%29.77 "HgN/A
1:00 PM91 °FPartly sunny.5 mph56%29.80 "HgN/A
12:30 PM93 °FPartly sunny.6 mph53%29.80 "HgN/A
12:00 PM90 °FScattered clouds.1 mph55%29.83 "HgN/A
10:00 AM88 °FScattered clouds.2 mph62%29.89 "HgN/A
Weather by CustomWeather, © 2014

See weather overviewHow to use our weather pages